Terminal Aerodrome Forecast
Issued by NWS

Home | Current Version | Previous Version | Text Only | Print | Product List | Glossary On
Versions: 1 2 3 4 5 6 7 8 9 10 11 12 13 14 15 16
855
FTUS46 KMTR 250531
TAFSNS
TAF
KSNS 250531Z 2506/2606 28010KT P6SM OVC007
     FM250700 30006KT 4SM BR OVC004
     FM251400 VRB03KT 2SM BR FU OVC004
     FM251800 29010KT 6SM HZ FU SCT015
     FM260200 29008KT 6SM BR HZ OVC009=

USA.gov is the U.S. government's official web portal to all federal, state and local government web resources and services.